Location: Unspecified
(35.6961°N, 0.0000°E)
Time: 13:01:16
(UTC+00:00)

Explorer 11/Cluster Stage 4 - Pass Details

Date: 28 May 2019
Orbit: 467 x 1260 km, 28.8° (Epoch: 19 June)

Event Time Altitude Azimuth Distance (km) Brightness Sun altitude
Rises 04:30:31 0° 264° (W) 3,320 - -3.8°
Exits shadow 04:31:10 - 262° (W) 3,079 9.0 -3.7°
Reaches altitude 10° 04:33:32 10° 254° (WSW) 2,236 8.3 -3.3°
Maximum altitude 04:37:57 29° 195° (SSW) 1,178 7.2 -2.5°
Drops below altitude 10° 04:41:40 10° 135° (SE) 1,856 8.8 -1.8°
Sets 04:43:57 0° 123° (ESE) 2,660 9.8 -1.4°
